Regional Weather Roundup
Issued by NWS Albany, NY

Home | Current Version | Previous Version | Text Only | Print | Product List | Glossary On
Versions: 1 2 3 4 5 6 7 8 9 10 11 12 13 14 15 16 17 18 19 20 21 22 23 24 25 26 27 28
000
ASUS41 KALY 180510
RWRALY

NEW YORK STATE HOURLY WEATHER ROUNDUP
NATIONAL WEATHER SERVICE ALBANY NY
1200 AM EST WED JAN 18 2017

NOTE: "FAIR" INDICATES FEW OR NO CLOUDS BELOW 12,000 FEET WITH NO
SIGNIFICANT WEATHER AND/OR NO OBSTRUCTIONS TO VISIBILITY.

NYZ032-033-038>043-046>054-057>066-NYZ062>081-082-084-180600-
EAST


CITY           SKY/WX    TMP DP  RH WIND       PRES   REMARKS
ALBANY         LGT RAIN  34  31  88 S7        29.99F FOG     WCI  28
GLENS FALLS    FRZ RAIN  32  29  88 CALM      29.98F FOG
POUGHKEEPSIE   CLOUDY    32  32 100 N6        29.99F FOG     WCI  26
NEWBURGH       LGT RAIN  34  34 100 NE7       29.99F FOG     WCI  28
MONTGOMERY     LGT RAIN  34  32  92 N7        29.95F FOG     WCI  28
WHITE PLAINS   LGT RAIN  36  35  96 NE6       29.96S FOG     WCI  31
ISLIP          CLOUDY    40  40 100 NE6       29.95F FOG
NEW YORK CITY  DRIZZLE   39  37  92 NE13      29.97F FOG     WCI  31
CENTRAL PARK   LGT RAIN  38  37  97 VRB5      29.98F FOG     WCI  34
$$

NYZ005>009-017-018-044>046-055-056-180600-
CENTRAL


CITY           SKY/WX    TMP DP  RH WIND       PRES   REMARKS
FULTON         LGT RAIN  36  34  92 SE8       29.82S FOG     WCI  30
SYRACUSE       LGT RAIN  37  34  89 E7        29.83F WCI  32
ROME           LGT RAIN  34  33  96 E8        29.90F FOG     WCI  27
ELMIRA         CLOUDY    37  35  92 CALM      29.85F FOG
BINGHAMTON     CLOUDY    33  33 100 S7        29.84F WCI  27
MONTICELLO     CLOUDY    30  30 100 CALM      29.92F
$$

NYZ026>034-041>043-087-180600-
NORTH


CITY           SKY/WX    TMP DP  RH WIND       PRES   REMARKS
WATERTOWN      LGT RAIN  36  36 100 N5        29.80F VSB 1   WCI  32
FORT DRUM      NOT AVBL
OGDENSBURG     LGT RAIN  32  31  96 NE8       29.87S WCI  24
MASSENA        LGT SNOW  29  27  92 NE12      29.92F FOG     WCI  19
SARANAC LAKE   LGT SNOW  33  29  85 MISG      29.83F FOG
PLATTSBURGH    LGT SNOW  33  32  96 SE10      29.97F FOG     WCI  25
$$

NYZ001>004-010>016-019>021-085-180600-
WEST


CITY           SKY/WX    TMP DP  RH WIND       PRES   REMARKS
NIAGARA FALLS  FOG       38  35  89 SW8       29.80S VSB 1/4 WCI  32
BUFFALO        DRZL/FOG  38  37  97 SW14      29.80F VSB 1   WCI  30
DUNKIRK        CLOUDY    39  39 100 SW17G24   29.84S FOG     WCI  30
JAMESTOWN      CLOUDY    39  36  87 W16G22    29.82F WCI  30
WELLSVILLE     FOG       40  39  97 CALM      29.81F VSB 1/4
ROCHESTER      CLOUDY    46  43  89 W14G22    29.79S
PENN YAN       CLOUDY    40  35  83 SW13      29.81F WCI  32
$$

             KEY
       WCI = WIND CHILL INDEX
       VSB = VISIBILITY
       HX  = HEAT INDEX
$$




USA.gov is the U.S. government's official web portal to all federal, state and local government web resources and services.